Free Severe Weather Alerts by Email and Text Message   

 
Follow iAlert.com on twitter @ialertcom
Search For Active Alerts in Your Area  
  Hi Guest:  [ Sign-up / Services ] [ Login ]

Current weather by "City, St" or "zip code"  

 

Advertise Here

Hazardous Weather Conditions

No active alerts for NEW YORK, NEW YORK

Current Conditions: NEW YORK, NEW YORK

Fair


58.0 F

Last Updated on Mar 25 2017, 10:51 am EDT
Humidity: 50%
Wind Speed: 4.6 mph
Barometer 30.17 in
Dewpoint: 39.0 F
Visibility: 10.00 mi
Precip: --
Heat Index: NA
Wind Chill: 58 F
Current conditions at:

New York City, Central Park, NY (KNYC)

Lat: 40.78 Lon: -73.966

Local Radar Image active severe weather and emergency alerts image image weather storm and storm spotter reports image weather observation monitoring service image
Local
Radar
Active
Alerts
Storm Reports Weather
Monitoring

Weather Alert Notification Services


ialert severe weather and emergency alerts by text message and email ialert daily weather forecast by email and text message service ialert real-time weather-observation monitoring and alert notification service ialert storm report monitoring alert notification

Observation History for NEW YORK, NEW YORK


Time Wind
(mph)
Vis
(mi)
Weather Precip (in) Temperature (F) Relative
Humidity
Wind
Chill
(°F)
Heat
Index
(°F)
Pressure
Air Dwpt altimeter
(in)
sea level
(mb)
10:51 am EDT 4.6 10.00 Fair -- 58.0 39.0 50% 58 NA 30.17 1020.7
9:51 am EDT N 0.0 10.00 Partly Cloudy -- 57.0 39.0 51% NA NA 30.18 1021.1
8:51 am EDT N 0.0 10.00 A Few Clouds -- 55.0 37.9 53% NA NA 30.18 1021.1
7:51 am EDT N 0.0 10.00 Fair -- 52.0 37.9 59% NA NA 30.16 1020.5
6:51 am EDT 5.8 10.00 Fair -- 53.0 37.9 57% 51 NA 30.14 1019.6
5:51 am EDT W 8.1 G 18.4 10.00 Fair -- 54.0 37.0 53% 52 NA 30.09 1018.2
4:51 am EDT W 9.2 G 19.6 10.00 Fair -- 53.0 36.0 52% 50 NA 30.08 1017.9
3:51 am EDT W 11.5 G 17.3 10.00 Fair -- 52.0 35.1 53% 48 NA 30.09 1018.0
2:51 am EDT W 9.2 G 17.3 10.00 Fair -- 53.0 34.0 48% 50 NA 30.10 1018.3
1:51 am EDT SW 12.7 G 20.7 10.00 Fair -- 54.0 34.0 47% 50 NA 30.10 1018.5
12:51 am EDT W 11.5 G 16.1 10.00 Fair -- 53.0 33.1 47% 49 NA 30.13 1019.4
11:51 pm EDT W 5.8 10.00 Fair -- 54.0 32.0 43% 53 NA 30.15 1020.1
10:51 pm EDT 4.6 10.00 Fair -- 53.0 32.0 45% 52 NA 30.16 1020.3
9:51 pm EDT 4.6 G 18.4 10.00 Fair -- 54.0 32.0 43% 53 NA 30.18 1021.1
8:51 pm EDT SW 10.4 G 17.3 10.00 Fair -- 55.0 34.0 45% 52 NA 30.16 1020.6
7:51 pm EDT N 0.0 10.00 Fair -- 55.0 34.0 45% NA NA 30.14 1019.8
6:51 pm EDT 10.00 Fair -- 56.0 34.0 44% NA NA 30.13 1019.6
5:51 pm EDT 10.00 Overcast -- 56.0 32.0 40% NA NA 30.15 1020.0
4:51 pm EDT 3.5 10.00 Overcast -- 54.0 30.9 42% NA NA 30.16 1020.5
3:51 pm EDT 10.00 A Few Clouds -- 51.0 28.9 43% NA NA 30.19 1021.7
2:51 pm EDT W 9.2 G 17.3 10.00 Overcast -- 48.0 27.0 44% 44 NA 30.23 1023.0
1:51 pm EDT 6.9 G 20.7 10.00 Overcast Trace 46.0 28.0 50% 42 NA 30.28 1024.6
12:51 pm EDT W 8.1 10.00 Overcast -- 47.0 21.9 37% 43 NA 30.34 1026.6
11:51 am EDT W 8.1 G 18.4 10.00 Overcast -- 45.0 21.0 39% 41 NA 30.40 1028.7

Regional Weather Observation:


New York, La Guardia Airport, NY (KLGA)

Mostly Cloudy
53.0 F

Newark, Newark International Airport, NJ (KEWR)

Overcast
57.0 F

New York, Kennedy International Airport, NY (KJFK)

Overcast
57.0 F

Teterboro, Teterboro Airport, NJ (KTEB)

Fair
57.0 F

Caldwell, Essex County Airport, NJ (KCDW)

Fair
56.0 F

Morristown Municipal, NJ (KMMU)

Overcast
55.0 F

Advertise Here


Advertise Here